Akron, OH

9:06 PM EST on December 08, 2016 (GMT -0500)
Akron Fulton International

Weather History for KAKR - November, 2012

Change the Weather History Date:

Monday, November 19, 2012

  Actual Average (KCAK) Record (KCAK)
Temperature  
Mean Temperature 39 °F -  
Max Temperature 54 °F 49 °F 72 °F (1985)
Min Temperature 24 °F 34 °F 7 °F (2014)
Degree Days  
Heating Degree Days 26    
Moisture  
Dew Point 29 °F    
Average Humidity 71    
Maximum Humidity 89    
Minimum Humidity 40    
Precipitation  
Precipitation 0.00 in - - ()
Sea Level Pressure  
Sea Level Pressure 30.34 in    
Wind  
Wind Speed 1 mph (SE)    
Max Wind Speed 7 mph    
Max Gust Speed -    
Visibility 8 miles    
Events      
Averages and records for this station are not official NWS values.
T = Trace of Precipitation, MM = Missing Value Source: NWS Daily Summary

Daily Weather History Graph

Daily Weather History Graph

Search for Another Location

Airport or City:

Trip Planner

Search our weather history database for the weather conditions in past years. The results will help you decide how hot, cold, wet, or windy it might be!

Date:

Astronomy

Nov. 19, 2012 Rise Set
Actual Time 7:18 AM EST 5:03 PM EST
Civil Twilight 6:48 AM EST 5:33 PM EST
Nautical Twilight 6:15 AM EST 6:07 PM EST
Astronomical Twilight 5:42 AM EST 6:39 PM EST
Moon 12:19 PM EST (11/19) 11:30 PM EST (11/19)
Length of Visible Light 10h 44m
Length of Day
9h 44m
Waxing Crescent, 40% of the Moon is Illuminated
Nov 19
Waxing Crescent
Nov 20
First Quarter
Nov 28
Full
Dec 6
Last Quarter
Dec 13
New

Hourly Weather History & Observations

Time (EST) Temp. Windchill Dew Point Humidity Pressure Visibility Wind Dir Wind Speed Gust Speed Precip Events Conditions
12:54 AM 28.9 °F - 25.0 °F 85% 30.43 in 7.0 mi Calm Calm - N/A   Clear
1:54 AM 28.0 °F - 24.1 °F 85% 30.42 in 6.0 mi Calm Calm - N/A   Clear
2:54 AM 27.0 °F - 24.1 °F 89% 30.41 in 6.0 mi Calm Calm - N/A   Clear
3:54 AM 28.0 °F - 25.0 °F 88% 30.40 in 7.0 mi Calm Calm - N/A   Clear
4:54 AM 25.0 °F - 21.9 °F 88% 30.41 in 7.0 mi Calm Calm - N/A   Clear
5:54 AM 26.1 °F - 23.0 °F 88% 30.42 in 7.0 mi Calm Calm - N/A   Clear
6:54 AM 24.1 °F - 21.0 °F 88% 30.42 in 7.0 mi Calm Calm - N/A   Clear
7:54 AM 26.1 °F - 23.0 °F 88% 30.42 in 6.0 mi Calm Calm - N/A   Clear
8:54 AM 36.0 °F - 30.0 °F 79% 30.42 in 6.0 mi Calm Calm - N/A   Haze
9:54 AM 41.0 °F 39.0 °F 32.0 °F 70% 30.40 in 9.0 mi South 3.5 mph - N/A   Clear
10:54 AM 44.1 °F 40.1 °F 32.0 °F 63% 30.39 in 10.0 mi South 6.9 mph - N/A   Clear
11:54 AM 46.9 °F - 32.0 °F 56% 30.36 in 10.0 mi Calm Calm - N/A   Clear
12:54 PM 50.0 °F - 32.0 °F 50% 30.34 in 10.0 mi Calm Calm - N/A   Clear
1:54 PM 52.0 °F - 32.0 °F 47% 30.31 in 10.0 mi East 3.5 mph - N/A   Clear
2:54 PM 54.0 °F - 33.1 °F 45% 30.30 in 10.0 mi Calm Calm - N/A   Clear
3:54 PM 54.0 °F - 30.0 °F 40% 30.29 in 10.0 mi Calm Calm - N/A   Clear
4:54 PM 50.0 °F - 33.1 °F 52% 30.28 in 10.0 mi Calm Calm - N/A   Clear
5:54 PM 50.0 °F - 33.1 °F 52% 30.27 in 10.0 mi East 4.6 mph - N/A   Clear
6:54 PM 43.0 °F - 33.1 °F 68% 30.28 in 10.0 mi Calm Calm - N/A   Clear
7:54 PM 45.0 °F 43.5 °F 33.1 °F 63% 30.27 in 10.0 mi SE 3.5 mph - N/A   Clear
8:54 PM 39.0 °F - 32.0 °F 76% 30.25 in 10.0 mi Calm Calm - N/A   Clear
9:54 PM 37.0 °F - 32.0 °F 82% 30.24 in 8.0 mi Calm Calm - N/A   Clear
10:54 PM 35.1 °F - 30.9 °F 85% 30.23 in 8.0 mi Calm Calm - N/A   Clear
11:54 PM 36.0 °F - 32.0 °F 86% 30.22 in 7.0 mi Calm Calm - N/A   Clear